Location: Nicosia
(35.1670°N, 33.3670°E)
Time: 23:23:18
(UTC+02:00)

Hubble Space Telescope - Pass Details

Date: 05 December 2023
Orbit: 516 x 519 km, 28.5° (Epoch: 27 February)

Event Time Altitude Azimuth Distance (km) Brightness Sun altitude
Rises 17:37:38 0° 255° (WSW) 2,615 6.4 -12.8°
Reaches altitude 10° 17:41:40 10° 215° (SW) 1,728 4.2 -13.6°
Maximum altitude 17:42:31 11° 203° (SSW) 1,693 3.9 -13.7°
Drops below altitude 10° 17:43:21 10° 190° (S) 1,728 3.7 -13.9°
Sets 17:47:23 0° 150° (SSE) 2,614 4.2 -14.7°
